Location: Burnt Hill
(41.0333°S, 175.8333°E)
Time: 01:05:23
(UTC+00:00)

Daily predictions for brighter satellites

Satellite Brightness Start Highest point End
(mag) Time Altitude Azimuth Time Altitude Azimuth Time Altitude Azimuth
USA 59 Rocket 4.1 07:25:11 10° WSW 07:32:45 23° SSW 07:40:27 10° SSE
Cosmos 2228 3.8 07:32:17 10° SSE 07:36:07 33° ESE 07:39:52 10° NE
Cosmos 1975 Rocket 3.2 07:33:04 10° N 07:37:25 56° E 07:41:51 10° SSE
Cosmos 2263 4.2 07:34:14 10° SSW 07:39:55 84° ESE 07:45:33 10° NNE
NOAA 6 4.2 07:37:42 10° SSE 07:42:48 52° E 07:47:50 10° N
Cosmos 1741 Rocket 4.1 07:37:44 10° SSW 07:43:01 82° WNW 07:48:14 10° NNE
YAOGAN 1 2.5 07:39:15 10° SSE 07:43:37 85° ENE 07:47:55 10° NNW
Lacrosse 4 Rocket 3.5 07:42:45 10° SSE 07:45:10 15° SE 07:47:36 10° E
Lacrosse 5 rocket 3.7 07:46:07 10° S 07:47:52 13° SSE 07:49:37 10° SE
Cosmos 332 Rocket 3.9 07:44:26 10° SSW 07:49:19 81° WNW 07:54:10 10° NNE
CZ-3 Stage 3 3.2 07:41:46 10° WNW 07:50:19 28° N 07:53:37 11° NE
Cosmos 2297 4.3 07:47:32 10° SSW 07:53:12 59° WNW 07:58:50 10° N
NOSS 3-2 (A) 4.0 07:47:18 10° SSW 07:53:24 41° SE 07:58:04 12° ENE
COBE Rocket 4.1 07:49:50 10° NNE 07:54:29 54° ESE 07:59:19 10° S
Meteor 2-12 Rocket 4.4 07:49:08 10° N 07:55:08 70° E 08:01:15 10° SSE
Cosmos 1634 Rocket 4.2 07:53:13 10° S 07:59:37 80° W 08:05:57 10° N
Radarsat Rocket 4.4 07:54:39 10° SSE 08:01:20 72° ENE 08:08:50 10° N
Cosmos 1603 3.6 07:58:21 10° NNW 08:03:55 71° ENE 08:09:33 10° SSE
Cosmos 1302 Rocket 4.3 07:59:30 10° NNW 08:04:47 73° WSW 08:10:08 10° SSE
Cosmos 1544 Rocket 4.0 08:01:27 10° S 08:05:40 42° ESE 08:09:06 14° NE
Cosmos 1943 4.2 08:04:10 10° NW 08:09:42 52° WSW 08:15:20 10° SSE
Cosmos 2369 Rocket 3.5 08:07:04 10° SW 08:12:17 39° WNW 08:17:26 10° N
Nadezhda 4 Rocket 4.2 08:10:26 10° NNE 08:16:24 52° E 08:22:23 10° SSE
ATLAS 3B R/B 4.3 08:11:49 10° WNW 08:17:37 34° SW 08:23:15 10° SSE
Cosmos 2058 3.1 08:13:51 10° NNE 08:17:43 48° E 08:21:39 10° SSE
SJ-6B 2.5 08:15:39 10° SSE 08:19:21 78° ENE 08:22:56 10° N
Cosmos 1992 Rocket 4.0 08:17:35 10° NNW 08:22:48 89° ENE 08:28:04 10° SSE
BREEZE-M R/B 3.8 08:18:43 10° WSW 08:23:02 88° NNW 08:29:10 19° NE
USA 281 4.1 08:18:22 10° SE 08:23:51 27° ENE 08:27:31 17° NNE
Cosmos 1315 Rocket 3.1 08:25:11 10° SSW 08:28:58 62° W 08:32:20 12° N
Cosmos 1862 3.4 08:28:01 23° NNE 08:29:57 45° E 08:33:34 10° SSE
Cosmos 2142 Rocket 4.5 08:23:58 10° S 08:30:12 88° W 08:36:23 10° N
Geosat 4.1 08:27:51 10° SE 08:32:49 53° ENE 08:37:42 10° N
USA 307 4.4 08:31:45 10° W 08:35:26 33° SSW 08:38:48 10° SSE
Cosmos 2098 Rocket 3.2 08:30:56 10° S 08:36:06 81° E 08:39:04 21° NNE
Cosmos 1356 Rocket 4.0 08:32:22 10° SSW 08:36:15 51° W 08:39:44 12° N
CZ-4B R/B 3.9 08:32:06 10° SSE 08:36:15 89° ENE 08:40:22 10° NNW
SPOT 5 3.4 08:33:00 10° SSE 08:37:18 36° E 08:39:11 26° NE
CENTAUR R/B 2.9 08:32:52 10° SW 08:37:32 38° WNW 08:40:59 14° N
Cosmos 1536 Rocket 3.5 08:35:11 16° N 08:38:39 66° E 08:43:01 10° SSE
Resurs 01 Rocket 2.1 08:34:53 10° S 08:39:18 62° WSW 08:43:40 10° NNW
Cosmos 1428 Rocket 4.5 08:38:20 10° N 08:44:37 73° E 08:50:59 10° SSE
CZ-4 R/B 1.3 08:41:18 10° SSE 08:44:57 52° E 08:46:09 36° NNE
Meteor 1-31 Rocket 3.0 08:43:16 10° S 08:46:53 62° WSW 08:50:24 10° NNW
USA 215 3.3 08:41:16 10° SE 08:47:44 57° NE 08:54:08 10° NNW
Cosmos 1782 2.7 08:45:27 10° SSW 08:49:06 73° W 08:50:49 29° N
EXPRESS MD2 2.7 08:46:54 10° SW 08:49:08 44° SSE 08:49:08 44° SSE
Cosmos 1697 Rocket 4.4 08:46:19 10° S 08:50:27 20° SE 08:52:58 15° E
CSL-04 Rocket 3.6 08:49:40 10° SSE 08:55:00 62° ENE 08:58:16 23° N
Cosmos 1933 3.4 08:59:24 10° S 09:03:13 50° E 09:03:33 48° E
IRIDIUM 103 4.3 09:02:01 33° NNE 09:04:17 64° E 09:09:32 10° S
ERS-1 Rocket 3.6 09:03:51 10° SSE 09:08:31 36° E 09:08:47 35° ENE
Cosmos 1763 Rocket 3.9 09:15:10 39° E 09:15:10 39° E 09:19:50 10° SE
ADEOS 3.5 09:11:15 10° SSE 09:16:31 66° ENE 09:18:18 40° N
Helios 1A 3.8 09:15:27 29° NNW 09:17:05 44° W 09:21:02 10° SSW
Feng Yun 1-1 Rocket 4.3 09:12:04 10° SSE 09:17:55 70° ENE 09:20:41 33° N
NOSS 3-2 (C) 3.3 09:11:43 10° SSW 09:18:04 65° SE 09:19:47 43° ENE
USA 267 4.4 09:15:19 15° E 09:20:05 37° SSE 09:26:02 10° SW
CZ-4B R/B 3.1 09:16:20 10° SSE 09:21:45 60° ENE 09:23:05 46° NNE
Cosmos 1092 Rocket 3.9 09:18:54 28° N 09:22:20 84° E 09:28:34 10° S
IRIDIUM 106 4.3 09:20:19 36° N 09:22:33 87° W 09:27:53 10° S
Cosmos 1553 Rocket 4.5 09:16:59 10° S 09:23:03 43° ESE 09:24:34 37° ENE
Lacrosse 4 Rocket 1.6 09:19:17 10° SW 09:23:26 62° WNW 09:24:01 55° NNW
Lacrosse 5 rocket 1.6 09:21:56 10° SW 09:25:45 50° SE 09:25:52 50° SE
USA 59 Rocket 4.0 09:19:16 10° SW 09:26:23 20° S 09:33:01 10° SE
BREEZE-M DEB 2.6 09:26:22 80° W 09:26:31 87° SSW 09:32:28 10° ESE
CZ-4B DEB 4.2 09:21:42 10° SSE 09:27:17 80° WSW 09:30:35 25° NNW
Cosmos 1346 Rocket 3.2 09:31:21 49° SE 09:31:21 49° SE 09:34:15 10° SSE
MOS 1 4.2 09:25:39 10° SSE 09:31:24 67° ENE 09:32:56 48° NNE
Cosmos 1503 Rocket 4.1 09:26:47 10° SSW 09:32:06 63° ESE 09:33:01 54° ENE
Okean O Rocket 2.2 09:31:59 10° SSE 09:35:25 43° ESE 09:35:25 43° ESE
Cosmos 1606 Rocket 3.8 09:32:20 10° SSW 09:36:42 61° W 09:37:23 53° NW
Cosmos 1833 Rocket 2.5 09:34:39 38° NNW 09:36:53 81° ENE 09:42:35 10° SSE
Spot 2 Rocket 4.4 09:32:22 10° SSE 09:36:14 33° ESE 09:36:14 33° ESE
Terra 1.8 09:32:22 10° SSE 09:36:59 60° E 09:36:59 60° E
Cosmos 540 Rocket 3.6 09:38:19 54° E 09:38:19 54° E 09:43:06 10° SSE
Cosmos 1980 Rocket 3.8 09:34:07 10° S 09:38:27 22° SE 09:39:56 20° ESE
USA 186 4.1 09:38:07 10° S 09:38:54 17° S 09:38:54 17° S
Cosmos 2058 Rocket 3.5 09:38:08 10° S 09:41:59 48° SE 09:41:59 48° SE
Cosmos 2026 Rocket 4.4 09:38:23 20° NNW 09:42:45 60° W 09:49:05 10° S
Cosmos 2084 4.0 09:38:52 10° SW 09:42:58 48° WNW 09:42:58 48° WNW
NOSS 3-2 (A) 4.3 09:38:44 10° SW 09:43:54 31° WNW 09:45:25 26° NW
CZ-4B R/B 4.0 09:40:51 10° SSE 09:45:08 44° ESE 09:45:08 44° ESE
CZ-2C R/B 4.0 09:47:18 10° S 09:49:11 31° S 09:49:11 31° S
Cosmos 2360 4.3 09:45:55 10° SSW 09:51:38 70° WNW 09:52:39 57° NNW
Cosmos 1656 4.2 09:51:31 10° SW 09:56:45 47° WNW 09:57:44 42° NW
SeaSat 1 4.4 09:55:54 16° ESE 09:56:56 18° SE 10:00:08 10° S
Cosmos 1892 Rocket 4.2 09:57:19 48° WNW 09:57:55 52° W 10:02:21 10° S
IRS-1A Rocket 4.2 09:54:20 10° SSE 10:00:15 74° ENE 10:00:48 69° NNE
CZ-4B R/B 4.4 09:59:12 10° SSE 10:00:48 26° SSE 10:00:48 26° SSE
BREEZE M DEB (TANK) 4.0 10:08:13 40° ESE 10:08:13 40° ESE 10:15:00 10° ESE
USA 238 DEB 3.9 10:01:34 10° SSW 10:08:03 50° SE 10:09:19 44° E
Cosmos 2221 4.4 10:04:39 10° SSE 10:06:44 20° SE 10:06:44 20° SE
USA 238 4.0 10:01:40 10° SSW 10:08:09 49° SE 10:09:26 43° E
USA 281 3.8 10:02:10 10° SSE 10:08:37 57° WSW 10:14:21 13° NW
SL-08 ROCKET BODY 4.3 10:08:32 66° NNW 10:09:27 88° W 10:15:36 10° S
Gbstr 26 Del rocket 3.6 10:11:08 10° SW 10:15:26 58° SSW 10:15:26 58° SSW
Cosmos 1626 Rocket 4.5 10:19:12 44° SSE 10:19:12 44° SSE 10:22:16 10° S
CZ-4 R/B 4.3 10:17:35 10° SW 10:18:35 11° WSW 10:19:36 10° W
CZ-2C R/B 4.1 10:22:12 59° SSW 10:22:12 59° SSW 10:25:53 10° SSW
Cosmos 2082 Rocket 3.3 10:24:44 32° ESE 10:24:44 32° ESE 10:28:14 10° SE
Cosmos 1898 Rocket 4.5 10:20:12 10° S 10:24:55 37° ESE 10:24:55 37° ESE
Cosmos 2266 Rocket 3.8 10:29:13 83° NE 10:29:24 85° E 10:35:34 10° S
USA 215 4.2 10:24:23 10° SE 10:30:38 47° SSW 10:36:50 10° WNW
Okean-O 3.5 10:28:01 10° S 10:31:54 46° SW 10:31:54 46° SW
Cosmos 1655 Rocket 4.4 10:34:46 48° ESE 10:34:46 48° ESE 10:40:17 10° SSE
Cosmos 489 Rocket 4.3 10:34:35 81° E 10:34:35 81° E 10:40:47 10° SSE
Cosmos 1697 Rocket 2.8 10:29:16 10° SSW 10:34:41 67° W 10:34:41 67° W
Meteor 2-6 Rocket 4.2 10:36:45 10° S 10:42:09 78° SSW 10:42:09 78° SSW
Exosat Rocket 4.0 10:43:09 71° ESE 10:43:09 71° ESE 10:48:16 10° SSE
S3M 3.9 10:42:14 10° S 10:48:25 86° WSW 10:48:25 86° WSW
Ariane Rocket 3.6 10:47:26 10° SSE 10:51:25 54° SSE 10:51:25 54° SSE
Aureole 1 Rocket 4.2 10:52:51 10° SSW 10:56:52 48° SSW 10:56:52 48° SSW
USA 267 3.1 11:02:39 81° NW 11:02:41 82° NW 11:09:19 10° SW
SPOT 3 Rocket 4.0 10:58:53 10° S 11:03:16 58° SSW 11:03:16 58° SSW
Meteor 1-19 Rocket 4.5 10:59:25 10° S 11:04:57 70° SSE 11:04:57 70° SSE
Cosmos 2315 Rocket 4.0 11:00:41 10° S 11:06:41 79° SW 11:06:41 79° SW
Okean O Rocket 4.0 11:09:23 10° SSW 11:12:00 16° WSW 11:12:41 15° WSW
Terra 4.2 11:11:19 10° SSW 11:14:06 16° WSW 11:15:37 14° W
ATLAS 5 CENTAUR R/B 2.8 11:18:56 64° ESE 11:18:56 64° ESE 11:25:04 10° SE
USA 59 Rocket 3.1 11:10:10 10° SSW 11:19:13 36° SE 11:25:35 15° E
Cosmos 1980 Rocket 2.8 11:17:15 10° SSW 11:21:41 50° WSW 11:21:41 50° WSW
Cosmos 841 Rocket 4.4 11:27:20 46° SW 11:27:20 46° SW 11:31:35 10° S
Meteor 1-27 Rocket 4.2 11:25:17 10° S 11:29:46 56° SSE 11:29:46 56° SSE
SeaSat 1 3.5 11:35:30 41° SW 11:35:30 41° SW 11:38:43 10° SSW
Cosmos 2333 Rocket 3.6 11:32:14 10° S 11:37:12 29° SE 11:37:36 29° ESE
Cosmos 1937 Rocket 4.5 11:33:52 10° SSW 11:37:32 44° SW 11:37:32 44° SW
COSMOS 2455 3.3 11:43:02 10° SSW 11:48:36 56° SE 11:48:36 56° SE
